Weather History for Ann Arbor, MI

Change the Weather History Date:

Friday, May 10, 2013

  Actual Average Record
Temperature  
Mean Temperature 57 °F -  
Max Temperature 73 °F 66 °F 82 °F (2004)
Min Temperature 44 °F 43 °F 36 °F (2002)
Degree Days  
Heating Degree Days 8    
Growing Degree Days 7 (Base 50)    
Moisture  
Dew Point 53 °F    
Average Humidity 81    
Maximum Humidity 96    
Minimum Humidity 64    
Precipitation  
Precipitation 0.22 in - - ()
Sea Level Pressure  
Sea Level Pressure 29.80 in    
Wind  
Wind Speed 8 mph (West)    
Max Wind Speed 17 mph    
Max Gust Speed 23 mph    
Visibility 8 miles    
Events Rain    
Averages and records for this station are not official NWS values.
T = Trace of Precipitation, MM = Missing Value Source: NWS Daily Summary

Daily Weather History Graph

Daily Weather History Graph

Search for Another Location

Airport:

Trip Planner

Search our weather history database for the weather conditions in past years. The results will help you decide how hot, cold, wet, or windy it might be!

Date:

Astronomy

May. 10, 2013 Rise Set
Actual Time 6:18 AM EDT 8:44 PM EDT
Civil Twilight 5:47 AM EDT 9:16 PM EDT
Nautical Twilight 5:08 AM EDT 9:55 PM EDT
Astronomical Twilight 4:24 AM EDT 10:39 PM EDT
Moon 6:42 AM EDT (5/10) 9:33 PM EDT (5/10)
Length of Visible Light 15h 28m
Length of Day
14h 25m
New Moon, 0% of the Moon is Illuminated
May 10
New Moon
May 18
First Quarter
May 25
Full
May 31
Last Quarter
Jun 8
New

Hourly Weather History & Observations

Time (EDT) Temp. Windchill Dew Point Humidity Pressure Visibility Wind Dir Wind Speed Gust Speed Precip Events Conditions
12:53 AM 64.0 °F - 54.0 °F 70% 29.92 in 10.0 mi SW 6.9 mph - 0.00 in Rain Light Rain
1:53 AM 60.1 °F - 57.0 °F 90% 29.89 in 10.0 mi Calm Calm - 0.01 in Rain Light Rain
2:53 AM 60.1 °F - 57.9 °F 93% 29.86 in 6.0 mi Calm Calm - 0.01 in   Overcast
3:53 AM 60.1 °F - 57.0 °F 90% 29.84 in 5.0 mi SSE 4.6 mph - 0.04 in Rain Light Rain
4:53 AM 60.1 °F - 57.0 °F 90% 29.81 in 5.0 mi SE 3.5 mph - 0.02 in Rain Light Rain
5:23 AM 59.0 °F - 57.2 °F 94% 29.81 in 2.0 mi SE 3.5 mph - 0.03 in Rain Light Rain
5:25 AM 59.0 °F - 57.2 °F 94% 29.81 in 2.0 mi SE 4.6 mph - 0.04 in Rain Rain
5:39 AM 59.0 °F - 57.2 °F 94% 29.80 in 2.0 mi SE 4.6 mph - 0.08 in Rain Rain
5:48 AM 59.0 °F - 57.2 °F 94% 29.79 in 1.5 mi SE 5.8 mph - 0.13 in Rain Heavy Rain
5:53 AM 59.0 °F - 57.9 °F 96% 29.78 in 1.8 mi SE 6.9 mph - 0.14 in Rain Rain
6:01 AM 60.8 °F - 57.2 °F 88% 29.79 in 2.5 mi Variable 4.6 mph - 0.00 in Rain Light Rain
6:27 AM 60.8 °F - 57.2 °F 88% 29.79 in 4.0 mi South 6.9 mph - 0.02 in   Overcast
7:10 AM 60.8 °F - 59.0 °F 94% 29.78 in 3.0 mi SSW 8.1 mph - N/A   Overcast
7:53 AM 62.1 °F - 59.0 °F 90% 29.78 in 4.0 mi SSW 9.2 mph - N/A   Overcast
7:56 AM 62.6 °F - 59.0 °F 88% 29.79 in 4.0 mi SSW 6.9 mph - N/A   Overcast
8:07 AM 62.6 °F - 60.8 °F 94% 29.78 in 4.0 mi SSW 9.2 mph - N/A   Overcast
8:53 AM 64.0 °F - 60.1 °F 87% 29.78 in 8.0 mi SW 12.7 mph - N/A   Mostly Cloudy
9:21 AM 64.4 °F - 59.0 °F 83% 29.79 in 9.0 mi SW 10.4 mph - N/A   Overcast
9:53 AM 64.9 °F - 59.0 °F 81% 29.78 in 10.0 mi WSW 10.4 mph 18.4 mph N/A   Overcast
10:39 AM 68.0 °F - 60.8 °F 78% 29.77 in 10.0 mi WSW 12.7 mph 21.9 mph N/A   Mostly Cloudy
10:48 AM 66.2 °F - 57.2 °F 73% 29.77 in 10.0 mi SW 17.3 mph 21.9 mph N/A   Mostly Cloudy
10:53 AM 66.9 °F - 57.9 °F 73% 29.77 in 10.0 mi SW 15.0 mph 21.9 mph N/A   Mostly Cloudy
11:29 AM 68.0 °F - 57.2 °F 68% 29.77 in 10.0 mi SW 16.1 mph 23.0 mph N/A   Mostly Cloudy
11:53 AM 70.0 °F - 59.0 °F 68% 29.76 in 10.0 mi SW 15.0 mph 21.9 mph N/A   Mostly Cloudy
12:34 PM 69.8 °F - 57.2 °F 64% 29.77 in 10.0 mi WSW 12.7 mph 23.0 mph N/A   Overcast
12:41 PM 69.8 °F - 57.2 °F 64% 29.77 in 10.0 mi WSW 15.0 mph 19.6 mph N/A   Overcast
1:29 PM 66.2 °F - 57.2 °F 73% 29.77 in 10.0 mi NW 9.2 mph 23.0 mph N/A   Overcast
1:53 PM 66.0 °F - 57.0 °F 73% 29.77 in 10.0 mi NW 10.4 mph - N/A   Mostly Cloudy
2:53 PM 66.0 °F - 55.9 °F 70% 29.78 in 10.0 mi NW 10.4 mph - N/A   Overcast
3:53 PM 62.1 °F - 53.1 °F 72% 29.78 in 10.0 mi NNW 9.2 mph - N/A   Overcast
4:37 PM 60.8 °F - 50.0 °F 68% 29.78 in 10.0 mi North 13.8 mph 21.9 mph N/A   Mostly Cloudy
4:53 PM 57.9 °F - 48.9 °F 72% 29.77 in 10.0 mi NNW 11.5 mph - N/A   Mostly Cloudy
5:40 PM 55.4 °F - 46.4 °F 72% 29.79 in 10.0 mi North 15.0 mph - N/A   Mostly Cloudy
5:53 PM 57.0 °F - 48.0 °F 72% 29.79 in 10.0 mi NNW 12.7 mph - N/A   Mostly Cloudy
6:08 PM 53.6 °F - 44.6 °F 72% 29.79 in 10.0 mi North 16.1 mph 20.7 mph N/A   Overcast
6:22 PM 53.6 °F - 44.6 °F 72% 29.79 in 10.0 mi North 13.8 mph - N/A   Overcast
6:53 PM 51.1 °F - 43.0 °F 74% 29.80 in 10.0 mi North 11.5 mph 19.6 mph N/A   Overcast
7:53 PM 48.0 °F - 42.1 °F 80% 29.81 in 10.0 mi NNW 12.7 mph - N/A   Mostly Cloudy
8:22 PM 46.4 °F 41.1 °F 41.0 °F 81% 29.82 in 10.0 mi North 11.5 mph 19.6 mph N/A   Overcast
8:53 PM 46.0 °F 40.2 °F 39.9 °F 79% 29.84 in 10.0 mi NNW 12.7 mph - N/A   Overcast
9:53 PM 44.1 °F 37.4 °F 39.0 °F 82% 29.86 in 10.0 mi North 13.8 mph - N/A   Overcast
10:53 PM 44.1 °F 38.1 °F 39.0 °F 82% 29.87 in 10.0 mi North 11.5 mph - N/A   Overcast
11:53 PM 44.1 °F 39.0 °F 39.0 °F 82% 29.87 in 10.0 mi NNW 9.2 mph - N/A   Overcast